Date String (YYYY-MM-DD hh:mm:ss) UTC,Instrument flags,Ambient pressure (hPa),Sample flow (lpm),Bypass flow (lpm),Sample temperature (°C),Ambient temperature (°C),ASC tube jacket temperature (°C),LED temperature (°C),Box temperature (°C),Sample RH (%),Span deviation,Mass concentration (μg/m³),Mass concentration (μg/m³),Mass concentration (μg/m³)
DateTimeUTC,F1_M11,P_M11,Q1_M11,Q2_M11,T1_M11,T2_M11,T3_M11,T4_M11,T5_M11,U1_M11,ZSPAN_M11,X0_M11,X2_M11,X1_M11
2023-01-20 02:00:00,,0823.8,5.01,0.00,22.3,20.8,00.0,31.2,24.1,10.3,0000.6,0020.69,0013.07,0012.24
2023-01-20 02:01:00,,0823.8,4.99,0.00,22.3,20.8,00.0,31.1,24.1,10.3,0000.5,0020.50,0013.01,0012.22
2023-01-20 02:02:00,,0823.8,5.00,0.00,22.3,20.8,00.0,31.1,24.1,10.3,0000.5,0020.84,0013.02,0012.21
2023-01-20 02:03:00,,0823.8,4.99,0.00,22.3,20.8,00.0,31.1,24.1,10.3,0000.4,0021.47,0013.01,0012.21
2023-01-20 02:04:00,,0823.8,5.00,0.00,22.3,20.8,00.0,31.1,24.1,10.3,0000.2,0021.75,0013.00,0012.21
2023-01-20 02:05:00,,0823.8,4.99,0.00,22.3,20.8,00.0,31.1,24.1,10.3,-000.0,0021.81,0012.96,0012.21
2023-01-20 02:06:00,,0823.8,5.00,0.00,22.3,20.8,00.0,31.1,24.1,10.3,-000.1,0021.30,0012.89,0012.20
2023-01-20 02:07:00,,0823.7,4.99,0.00,22.3,20.8,00.0,31.1,24.1,10.3,-000.5,0021.97,0012.89,0012.21
2023-01-20 02:08:00,,0823.8,5.01,0.00,22.3,20.8,00.0,31.1,24.1,10.3,-000.7,0021.45,0012.83,0012.18
2023-01-20 02:09:00,,0823.7,5.01,0.00,22.3,21.2,00.0,31.1,24.2,10.3,-000.9,0020.98,0012.73,0012.12
2023-01-20 02:10:00,,0823.8,4.99,0.00,22.4,22.1,00.0,31.1,24.4,10.1,-000.5,0020.02,0012.44,0011.87
2023-01-20 02:11:00,,0823.7,4.99,0.00,22.5,22.8,00.0,31.1,24.6,10.1,0000.3,0019.39,0012.18,0011.59
2023-01-20 02:12:00,,0823.7,4.99,0.00,22.6,22.6,00.0,31.2,24.6,10.2,0000.4,0019.48,0011.97,0011.29
2023-01-20 02:13:00,,0823.8,5.00,0.00,22.6,22.2,00.0,31.2,24.5,10.3,0000.2,0020.07,0011.74,0010.98
2023-01-20 02:14:00,,0823.8,5.01,0.00,22.6,21.9,00.0,31.2,24.5,10.4,0000.2,0019.85,0011.48,0010.66
2023-01-20 02:15:00,,0823.8,4.99,0.00,22.6,21.7,00.0,31.2,24.5,10.5,0000.3,0019.84,0011.20,0010.33
2023-01-20 02:16:00,,0823.8,4.99,0.00,22.6,21.6,00.0,31.3,24.4,10.4,0000.6,0020.45,0010.96,0010.02
2023-01-20 02:17:00,,0823.9,5.01,0.00,22.6,21.5,00.0,31.3,24.4,10.2,0000.9,0020.86,0010.81,0009.80
2023-01-20 02:18:00,,0823.9,5.01,0.00,22.6,21.5,00.0,31.3,24.4,10.2,0001.0,0020.27,0010.64,0009.59
2023-01-20 02:19:00,,0823.9,5.00,0.00,22.6,21.4,00.0,31.3,24.4,10.1,0001.1,0020.53,0010.55,0009.44
2023-01-20 02:20:00,,0823.9,5.01,0.00,22.6,21.4,00.0,31.3,24.4,10.1,0001.1,0021.18,0010.52,0009.35
2023-01-20 02:21:00,,0824.0,4.99,0.00,22.6,21.3,00.0,31.3,24.4,10.0,0001.0,0021.62,0010.80,0009.55
2023-01-20 02:22:00,,0823.9,4.99,0.00,22.6,21.3,00.0,31.3,24.4,10.0,0000.3,0021.91,0011.07,0009.83
2023-01-20 02:23:00,,0824.0,5.00,0.00,22.6,21.2,00.0,31.3,24.4,10.0,0000.1,0022.45,0011.40,0010.17
2023-01-20 02:24:00,,0824.0,5.00,0.00,22.6,21.1,00.0,31.3,24.3,09.8,0000.6,0022.13,0011.67,0010.50
2023-01-20 02:25:00,,0824.0,5.00,0.00,22.5,20.9,00.0,31.3,24.3,09.7,0000.7,0021.87,0011.92,0010.80
2023-01-20 02:26:00,,0824.0,4.99,0.00,22.5,20.9,00.0,31.3,24.2,09.6,0000.7,0021.67,0012.20,0011.15
2023-01-20 02:27:00,,0824.0,5.00,0.00,22.5,20.8,00.0,31.3,24.2,09.6,0000.7,0021.27,0012.46,0011.46
2023-01-20 02:28:00,,0824.0,5.00,0.00,22.4,20.7,00.0,31.3,24.1,09.5,0001.4,0020.95,0012.59,0011.67
2023-01-20 02:29:00,,0824.0,5.01,0.00,22.4,20.7,00.0,31.3,24.2,09.3,0001.5,0020.55,0012.63,0011.77
2023-01-20 02:30:00,,0824.1,5.00,0.00,22.4,20.7,00.0,31.2,24.2,09.3,0001.4,0020.42,0012.67,0011.82
2023-01-20 02:31:00,,0824.0,4.99,0.00,22.4,20.8,00.0,31.2,24.2,09.2,0001.0,0020.03,0012.70,0011.87
2023-01-20 02:32:00,,0824.1,4.99,0.00,22.4,20.8,00.0,31.2,24.2,09.2,0000.5,0019.75,0012.63,0011.84
2023-01-20 02:33:00,,0824.0,5.01,0.00,22.4,20.9,00.0,31.2,24.2,09.2,0000.9,0019.62,0012.56,0011.79
2023-01-20 02:34:00,,0824.0,5.01,0.00,22.5,21.7,00.0,31.2,24.3,09.2,0000.7,0019.21,0012.42,0011.69
2023-01-20 02:35:00,,0824.1,5.00,0.00,22.5,22.6,00.0,31.2,24.5,09.2,0000.3,0018.55,0012.32,0011.61
2023-01-20 02:36:00,,0824.0,5.00,0.00,22.6,22.8,00.0,31.3,24.7,09.1,0000.4,0018.90,0012.32,0011.62
2023-01-20 02:37:00,,0824.0,5.00,0.00,22.7,22.5,00.0,31.3,24.7,09.1,0000.7,0019.02,0012.35,0011.62
2023-01-20 02:38:00,,0824.1,5.02,0.00,22.7,22.2,00.0,31.3,24.6,09.1,0000.9,0018.53,0012.33,0011.62
2023-01-20 02:39:00,,0824.0,5.00,0.00,22.7,21.9,00.0,31.3,24.5,09.4,0000.9,0018.40,0012.35,0011.62
2023-01-20 02:40:00,,0824.0,5.01,0.00,22.7,21.7,00.0,31.3,24.5,09.6,0000.5,0018.91,0012.41,0011.67
2023-01-20 02:41:00,,0824.0,5.01,0.00,22.7,21.6,00.0,31.3,24.5,09.6,0000.8,0018.99,0012.48,0011.72
2023-01-20 02:42:00,,0824.0,5.00,0.00,22.7,21.6,00.0,31.4,24.5,09.6,0001.0,0018.93,0012.56,0011.79
2023-01-20 02:43:00,,0824.0,5.00,0.00,22.7,21.5,00.0,31.4,24.5,09.6,0001.4,0019.06,0012.65,0011.86
2023-01-20 02:44:00,,0824.0,5.00,0.00,22.7,21.5,00.0,31.4,24.5,09.6,0001.3,0019.03,0012.69,0011.90
2023-01-20 02:45:00,,0824.0,5.00,0.00,22.7,21.4,00.0,31.4,24.4,09.6,0001.9,0019.32,0012.82,0011.96
2023-01-20 02:46:00,,0824.0,4.99,0.00,22.6,21.3,00.0,31.4,24.4,09.7,0001.5,0020.95,0012.86,0012.00
2023-01-20 02:47:00,,0824.0,5.00,0.00,22.6,21.2,00.0,31.4,24.4,09.8,0000.8,0021.87,0012.88,0012.01
2023-01-20 02:48:00,,0824.0,5.00,0.00,22.6,21.2,00.0,31.4,24.4,09.8,0000.4,0022.02,0012.82,0011.95
2023-01-20 02:49:00,,0824.1,5.00,0.00,22.6,21.1,00.0,31.4,24.4,09.9,-000.2,0022.07,0012.80,0011.88
2023-01-20 02:50:00,,0824.1,5.01,0.00,22.6,21.1,00.0,31.4,24.3,10.0,-000.8,0022.25,0012.77,0011.83
2023-01-20 02:51:00,,0824.1,5.00,0.00,22.6,21.1,00.0,31.4,24.3,10.0,-000.7,0022.22,0012.80,0011.81
2023-01-20 02:52:00,,0824.1,4.99,0.00,22.6,21.1,00.0,31.4,24.3,10.0,-001.4,0023.29,0012.83,0011.83
2023-01-20 02:53:00,,0824.1,5.00,0.00,22.6,21.1,00.0,31.4,24.3,10.1,-001.2,0023.60,0012.84,0011.80
2023-01-20 02:54:00,,0824.1,5.01,0.00,22.5,21.1,00.0,31.3,24.3,10.1,-001.3,0025.70,0012.85,0011.79
2023-01-20 02:55:00,,0824.1,5.01,0.00,22.5,21.1,00.0,31.3,24.3,10.1,-001.4,0028.34,0012.87,0011.78
2023-01-20 02:56:00,,0824.1,5.00,0.00,22.5,21.0,00.0,31.3,24.3,10.1,-001.1,0028.73,0012.76,0011.73
2023-01-20 02:57:00,,0824.1,5.00,0.00,22.5,21.0,00.0,31.3,24.3,10.1,-000.9,0028.41,0012.73,0011.67
2023-01-20 02:58:00,,0824.1,4.98,0.00,22.5,21.0,00.0,31.3,24.3,10.1,-000.3,0026.89,0012.71,0011.63
2023-01-20 02:59:00,,0824.1,4.98,0.00,22.5,20.9,00.0,31.3,24.2,10.2,0000.2,0026.88,0012.72,0011.63
